• In Russia
  • List of Countries
  • For 7 days
  • Water Temperature
  • Satellite Maps
  • Weather Map
  • Weather Widgets
  • user-avatar
    Login

    Hourly Weather Tomaszkow

    Today, 16 August, Thursday

    Time Temperature Precipitation Wind Pressure Humidity
    00:00 +19°C° 0 mm 1 mps 754 mmHg 72%
    01:00 +17°C° 0 mm 0 mps 754 mmHg 73%
    02:00 +17°C° 0 mm 0 mps 754 mmHg 74%
    03:00 +16°C° 0 mm 0 mps 754 mmHg 75%
    04:00 +16°C° 0 mm 0 mps 754 mmHg 76%
    05:00 +17°C° 0 mm 0 mps 754 mmHg 73%
    06:00 +18°C° 0 mm 0 mps 755 mmHg 69%
    07:00 +20°C° 0 mm 0 mps 755 mmHg 65%
    08:00 +21°C° 0 mm 0 mps 755 mmHg 61%
    09:00 +25°C° 0 mm 1 mps 755 mmHg 56%
    10:00 +26°C° 0 mm 1 mps 754 mmHg 51%
    11:00 +27°C° 0 mm 1 mps 754 mmHg 49%
    12:00 +27°C° 0 mm 1 mps 754 mmHg 46%
    13:00 +28°C° 0 mm 1 mps 754 mmHg 44%
    14:00 +27°C° 0 mm 1 mps 753 mmHg 44%
    15:00 +27°C° 0 mm 1 mps 753 mmHg 45%
    16:00 +27°C° 0 mm 1 mps 753 mmHg 45%
    17:00 +26°C° 0 mm 1 mps 753 mmHg 49%
    18:00 +25°C° 0 mm 1 mps 753 mmHg 52%
    19:00 +24°C° 0 mm 2 mps 753 mmHg 55%
    20:00 +24°C° 0 mm 2 mps 753 mmHg 56%
    21:00 +23°C° 0 mm 2 mps 753 mmHg 57%
    22:00 +21°C° 0 mm 2 mps 753 mmHg 59%
    23:00 +21°C° 0 mm 2 mps 753 mmHg 60%

    Tomorrow, 17 August, Friday

    Time Temperature Precipitation Wind Pressure Humidity
    00:00 +20°C° 0 mm 2 mps 753 mmHg 61%
    01:00 +20°C° 0 mm 2 mps 753 mmHg 63%
    02:00 +19°C° 0 mm 2 mps 752 mmHg 65%
    03:00 +19°C° 0 mm 2 mps 752 mmHg 67%
    04:00 +19°C° 0 mm 2 mps 752 mmHg 70%
    05:00 +20°C° 0 mm 2 mps 752 mmHg 69%
    06:00 +21°C° 0 mm 2 mps 752 mmHg 68%
    07:00 +21°C° 0 mm 2 mps 752 mmHg 67%
    08:00 +24°C° 0 mm 2 mps 752 mmHg 61%
    09:00 +26°C° 0 mm 3 mps 752 mmHg 56%
    10:00 +27°C° 0 mm 3 mps 752 mmHg 50%
    11:00 +28°C° 0 mm 3 mps 752 mmHg 48%
    12:00 +28°C° 0 mm 2 mps 751 mmHg 46%
    13:00 +29°C° 0 mm 2 mps 751 mmHg 44%
    14:00 +29°C° 0 mm 2 mps 751 mmHg 44%
    15:00 +29°C° 0 mm 1 mps 751 mmHg 44%
    16:00 +29°C° 0 mm 1 mps 751 mmHg 44%
    17:00 +28°C° 0 mm 1 mps 751 mmHg 48%
    18:00 +27°C° 0 mm 1 mps 751 mmHg 52%
    19:00 +26°C° 0 mm 2 mps 751 mmHg 55%
    20:00 +25°C° 0 mm 2 mps 751 mmHg 58%
    21:00 +24°C° 0 mm 2 mps 751 mmHg 60%
    22:00 +24°C° 0 mm 2 mps 751 mmHg 62%
    23:00 +23°C° 0 mm 2 mps 751 mmHg 64%

    Day after tomorrow, 18 August, Saturday

    Time Temperature Precipitation Wind Pressure Humidity
    00:00 +23°C° 0 mm 2 mps 751 mmHg 66%
    01:00 +22°C° 0 mm 1 mps 752 mmHg 67%
    02:00 +22°C° 0 mm 1 mps 752 mmHg 69%
    03:00 +22°C° 0 mm 1 mps 752 mmHg 70%
    04:00 +21°C° 0 mm 1 mps 752 mmHg 72%
    05:00 +22°C° 0 mm 1 mps 752 mmHg 70%
    06:00 +23°C° 0 mm 1 mps 752 mmHg 68%
    07:00 +24°C° 0 mm 1 mps 753 mmHg 66%
    08:00 +25°C° 0.1 mm 1 mps 753 mmHg 62%
    09:00 +26°C° 0.1 mm 2 mps 753 mmHg 58%
    10:00 +28°C° 0.1 mm 2 mps 753 mmHg 55%
    11:00 +28°C° 0.3 mm 3 mps 753 mmHg 54%
    12:00 +28°C° 0.3 mm 3 mps 753 mmHg 54%
    13:00 +28°C° 0.3 mm 3 mps 753 mmHg 54%
    14:00 +28°C° 0.1 mm 3 mps 753 mmHg 53%
    15:00 +28°C° 0.1 mm 3 mps 753 mmHg 53%
    16:00 +28°C° 0.1 mm 3 mps 753 mmHg 52%
    17:00 +27°C° 0 mm 3 mps 753 mmHg 57%
    18:00 +26°C° 0 mm 2 mps 754 mmHg 62%
    19:00 +24°C° 0 mm 2 mps 754 mmHg 67%
    20:00 +24°C° 0 mm 2 mps 754 mmHg 70%
    21:00 +23°C° 0 mm 2 mps 755 mmHg 74%
    22:00 +21°C° 0 mm 2 mps 755 mmHg 77%
    23:00 +20°C° 0 mm 2 mps 755 mmHg 78%

    19 August, Sunday

    Time Temperature Precipitation Wind Pressure Humidity
    00:00 +20°C° 0 mm 2 mps 755 mmHg 79%
    01:00 +19°C° 0 mm 2 mps 755 mmHg 80%
    02:00 +20°C° 0 mm 1 mps 755 mmHg 81%
    03:00 +19°C° 0 mm 1 mps 755 mmHg 82%
    04:00 +19°C° 0 mm 1 mps 755 mmHg 84%
    05:00 +20°C° 0 mm 1 mps 756 mmHg 79%
    06:00 +21°C° 0 mm 1 mps 756 mmHg 75%
    07:00 +22°C° 0 mm 1 mps 756 mmHg 71%
    08:00 +23°C° 0 mm 1 mps 756 mmHg 63%
    09:00 +25°C° 0 mm 1 mps 756 mmHg 54%
    10:00 +26°C° 0 mm 2 mps 756 mmHg 45%
    11:00 +27°C° 0 mm 2 mps 756 mmHg 42%
    12:00 +28°C° 0 mm 2 mps 755 mmHg 40%
    13:00 +28°C° 0 mm 2 mps 755 mmHg 37%
    14:00 +28°C° 0 mm 2 mps 755 mmHg 37%
    15:00 +29°C° 0 mm 2 mps 755 mmHg 37%
    16:00 +29°C° 0 mm 2 mps 755 mmHg 37%
    17:00 +27°C° 0 mm 2 mps 755 mmHg 41%
    18:00 +26°C° 0 mm 1 mps 755 mmHg 46%
    19:00 +24°C° 0 mm 1 mps 755 mmHg 50%
    20:00 +24°C° 0 mm 1 mps 755 mmHg 52%
    21:00 +23°C° 0 mm 1 mps 755 mmHg 55%
    22:00 +22°C° 0 mm 1 mps 755 mmHg 57%
    23:00 +22°C° 0 mm 1 mps 755 mmHg 58%

    20 August, Monday

    Time Temperature Precipitation Wind Pressure Humidity
    00:00 +21°C° 0 mm 1 mps 755 mmHg 60%
    01:00 +21°C° 0 mm 1 mps 755 mmHg 62%
    02:00 +20°C° 0 mm 1 mps 755 mmHg 62%
    03:00 +20°C° 0 mm 1 mps 754 mmHg 63%
    04:00 +20°C° 0 mm 1 mps 754 mmHg 64%
    05:00 +21°C° 0 mm 1 mps 754 mmHg 62%
    06:00 +21°C° 0 mm 1 mps 754 mmHg 61%
    07:00 +21°C° 0 mm 2 mps 754 mmHg 59%
    08:00 +24°C° 0 mm 2 mps 754 mmHg 54%
    09:00 +26°C° 0 mm 2 mps 754 mmHg 48%
    10:00 +28°C° 0 mm 2 mps 754 mmHg 43%
    11:00 +29°C° 0 mm 3 mps 754 mmHg 40%
    12:00 +30°C° 0 mm 3 mps 753 mmHg 38%
    13:00 +31°C° 0 mm 3 mps 753 mmHg 36%
    14:00 +31°C° 0 mm 3 mps 753 mmHg 36%
    15:00 +31°C° 0 mm 3 mps 752 mmHg 36%
    16:00 +31°C° 0 mm 3 mps 752 mmHg 36%
    17:00 +30°C° 0 mm 2 mps 752 mmHg 40%
    18:00 +28°C° 0 mm 2 mps 752 mmHg 44%
    19:00 +27°C° 0 mm 2 mps 752 mmHg 48%
    20:00 +26°C° 0 mm 2 mps 752 mmHg 50%
    21:00 +26°C° 0 mm 2 mps 752 mmHg 52%
    22:00 +25°C° 0 mm 2 mps 752 mmHg 54%
    23:00 +24°C° 0 mm 2 mps 752 mmHg 57%

    21 August, Tuesday

    Time Temperature Precipitation Wind Pressure Humidity
    00:00 +24°C° 0 mm 2 mps 752 mmHg 60%
    01:00 +23°C° 0 mm 2 mps 752 mmHg 64%
    02:00 +23°C° 0 mm 2 mps 752 mmHg 65%
    03:00 +23°C° 0 mm 2 mps 752 mmHg 66%
    04:00 +23°C° 0 mm 2 mps 753 mmHg 68%
    05:00 +23°C° 0 mm 2 mps 753 mmHg 68%
    06:00 +23°C° 0 mm 2 mps 753 mmHg 69%
    07:00 +24°C° 0 mm 2 mps 753 mmHg 69%
    08:00 +25°C° 0 mm 2 mps 753 mmHg 64%
    09:00 +26°C° 0 mm 3 mps 753 mmHg 59%
    10:00 +27°C° 0 mm 3 mps 753 mmHg 54%
    11:00 +28°C° 0 mm 3 mps 753 mmHg 52%
    12:00 +29°C° 0 mm 3 mps 753 mmHg 50%
    13:00 +29°C° 0 mm 3 mps 752 mmHg 48%
    14:00 +29°C° 0 mm 2 mps 752 mmHg 48%
    15:00 +29°C° 0 mm 2 mps 752 mmHg 47%
    16:00 +29°C° 0 mm 2 mps 752 mmHg 47%
    17:00 +28°C° 0 mm 1 mps 752 mmHg 51%
    18:00 +27°C° 0 mm 1 mps 751 mmHg 55%
    19:00 +23°C° 0 mm 0 mps 751 mmHg 59%
    20:00 +25°C° 0 mm 1 mps 751 mmHg 61%
    21:00 +24°C° 0 mm 1 mps 751 mmHg 63%
    22:00 +24°C° 0 mm 1 mps 751 mmHg 65%
    23:00 +23°C° 0 mm 1 mps 751 mmHg 67%
    Show more